Location: Franzen
(48.6167°N, 15.3833°E)
Time: 03:56:56
(UTC+00:00)

Transit 2A - Pass Details

Date: 11 August 2021
Orbit: 594 x 964 km, 66.7° (Epoch: 21 September)

Event Time Altitude Azimuth Distance (km) Brightness Sun altitude
Rises 11:39:28 0° 322° (NW) 3,276 9.1 55.7°
Reaches altitude 10° 11:41:49 10° 318° (NW) 2,400 8.5 55.6°
Maximum altitude 11:47:16 58° 241° (WSW) 1,002 8.2 55.3°
Drops below altitude 10° 11:53:13 10° 163° (SSE) 2,607 9.3 55.0°
Sets 11:55:52 0° 160° (SSE) 3,582 9.8 54.8°
